AirNav   Air Wisconsin Up To $57,000 Bonus
 
 407 users online  

KRIR Flabob Airport
Riverside/Rubidoux, California, USA

GOING TO RIVERSIDE/RUBIDOUX?


FAA INFORMATION EFFECTIVE 05 NOVEMBER 2020

Location

FAA Identifier: RIR
Lat/Long: 33-59-19.6350N 117-24-35.6750W
33-59.327250N 117-24.594583W
33.9887875,-117.4099097
(estimated)
Elevation: 767 ft. / 234 m (estimated)
Variation: 13E (2010)
From city: 3 miles NW of central business district of the associated city
Time zone: UTC -8 (UTC -7 during Daylight Saving Time)
Zip code: 92509

Airport Operations

Airport use: Open to the public
Activation date: 04/1942
Control tower: no
ARTCC: LOS ANGELES CENTER
FSS: RIVERSIDE FLIGHT SERVICE STATION
NOTAMs facility: RAL (NOTAM-D service available)
Attendance: MON-FRI 0830-1630
Pattern altitude: 1467 ft. MSL
NIGHT TPA 1000 FT AGL AROUND THE MOUNTAIN.
Wind indicator: lighted
Segmented circle: no
Lights: DUSK-DAWN. ACTVT MIRL RY 06/24 - CTAF.

Airport Communications

CTAF/UNICOM: 122.8
SOCAL APPROACH: 135.4
SOCAL DEPARTURE: 135.4
WX ASOS at RAL (2.8 nm SW): 128.8 (951-352-4392)
WX ASOS at ONT (10 nm NW): PHONE 909-937-2186
WX AWOS-3 at SBD (11 nm NE): 124.175 (909-382-0067)
WX AWOS-3PT at AJO (11 nm SW): 132.175 (951-340-4764)
WX ASOS at CNO (11 nm W): PHONE 909-393-5823
WX AWOS-3P at CCB (16 nm NW): 119.525 (909-985-4731)
WX AWOS-3PT at POC (19 nm W): 124.4 (909-596-1523)

Nearby radio navigation aids

VOR radial/distance  VOR name  Freq  Var
RALr031/(2.8)RIVERSIDE VOR112.4014E
PDZr040/7.3PARADISE VORTAC112.2015E
HDFr305/(17.0)HOMELAND VOR113.4014E
POMr091/19.5POMONA VORTAC110.4015E
ELBr026/24.7EL TORO VOR/DME117.2014E
SLIr054/34.4SEAL BEACH VORTAC115.7015E
VCVr168/36.3VICTORVILLE VOR/DME109.0514E

 
NDB name  Hdg/Dist  Freq  Var  ID
PETIS194/4.639714ESB ... -...

Airport Services

Fuel available: 100LL
Parking: tiedowns
Airframe service: MAJOR
Powerplant service: MAJOR
Bottled oxygen: NONE
Bulk oxygen: NONE

Runway Information

Runway 6/24

Dimensions: 3190 x 50 ft. / 972 x 15 m
Surface: asphalt, in poor condition
RWY 6/24 THERMAL AND BLOCK CRACKING
Runway edge lights: medium intensity
RY 06/24 NSTD MIRL; ONE RED/GREEN LGT EACH SIDE OF THLD.
Runway edge markings: RWY MARKINGS FADED.
RUNWAY 6  RUNWAY 24
Latitude: 33-59.267000N33-59.387500N
Longitude: 117-24.901833W117-24.287333W
Elevation: 750.3 ft.766.8 ft.
Traffic pattern: leftleft
Runway heading: 064 magnetic, 077 true244 magnetic, 257 true
Markings: basic, in poor conditionbasic, in poor condition
Runway end identifier lights: nono
Touchdown point: yes, no lightsyes, no lights
Obstructions: 25 ft. trees, 310 ft. from runway, 4:1 slope to clearnone

Airport Ownership and Management from official FAA records

Ownership: Privately-owned
Owner: FLABOB AIRPORT, LLC
4130 MENNES AVE
RIVERSIDE, CA 92509
Phone 951-683-2309
Manager: BETH LAROCK
4130 MENNES AVE
RIVERSIDE, CA 92509
Phone 951-683-2309

Airport Operational Statistics

Aircraft based on the field: 140
Single engine airplanes: 127
Multi engine airplanes: 13
    
Aircraft operations: avg 30/day *
74% local general aviation
26% transient general aviation
* for 12-month period ending 30 April 2019

Additional Remarks

MTN 1340 FT MSL 3/4 MILE SE OF ARPT +20 FT CROSS ON TOP.
DEPARTURES TO THE SOUTH CTC RIVERSIDE ATCT.
RY 24 AFT TKOF TURN LEFT 10 DEG; STAY NORTH OF RIVERBED.
RY 24 CALM WIND RY.
FOR CD CTC SOCAL APCH AT 800-448-3724.

Instrument Procedures

NOTE: All procedures below are presented as PDF files. If you need a reader for these files, you should download the free Adobe Reader.

NOT FOR NAVIGATION. Please procure official charts for flight.
FAA instrument procedures published for use from 05 November 2020 at 0901Z to 03 December 2020 at 0900z.

 
IAPs - Instrument Approach Procedures
RNAV (GPS)-A **CHANGED**   download (250KB)
NOTE: Special Take-Off Minimums/Departure Procedures apply   download (132KB)

Other nearby airports with instrument procedures:

KRAL - Riverside Municipal Airport (3 nm SW)
KRIV - March Air Reserve Base (10 nm SE)
KONT - Ontario International Airport (10 nm NW)
KSBD - San Bernardino International Airport (11 nm NE)
KAJO - Corona Municipal Airport (11 nm SW)
KCNO - Chino Airport (11 nm W)
KREI - Redlands Municipal Airport (14 nm NE)
KCCB - Cable Airport (16 nm NW)
KPOC - Brackett Field Airport (19 nm W)
 
Loc | Ops | Rwys | IFR | FBO | Links
Com | Nav | Svcs | Stats | Notes

San Bernardino International Airport Authority
 
Area around KRIR (Flabob Airport)
 
Road maps at: MapQuest Bing Google
 
Aerial photo
WARNING: Photo may not be current or correct
Aerial photo of KRIR (Flabob Airport)
Photo by Fred Emmert AirViews.com
Photo taken 25-Sep-2013
looking northeast.

Do you have a better or more recent aerial photo of Flabob Airport that you would like to share? If so, please send us your photo.

 
Sectional chart

 
Airport distance calculator
Flying to Flabob Airport? Find the distance to fly.

From to KRIR

Sunrise and sunset
Times for 26-Nov-2020
 Local
(UTC-8)
 Zulu
(UTC)
Morning civil twilight06:0714:07
Sunrise06:3414:34
Sunset16:4000:40
Evening civil twilight17:0701:07

Current date and time
Zulu (UTC)  26-Nov-2020 08:27:12
Local (UTC-8)  26-Nov-2020 00:27:12
 
METAR
KRAL 
3nm SW 
260753Z AUTO 00000KT 4SM BR CLR 09/07 A3006 RMK AO2 SLP168 T00940072 402060061
KONT 
9nm NW 
260810Z 00000KT 1 3/4SM BR BKN008 11/09 A3005 RMK AO2 T01060094
KRIV 
10nm SE 
260758Z 00000KT 4SM BR SCT004 05/04 A3005 RMK AO2A SLP174 T00530039 402011002
KCNO 
10nm W 
260800Z AUTO 00000KT 1/2SM FG VV013 09/08 A3007 RMK AO2 T00940078 $
KSBD 
11nm NE 
260820Z AUTO 07003KT 10SM OVC012 09/03 A3006 RMK AO2 T00890027
KAJO 
11nm SW 
260756Z AUTO 00000KT 8SM CLR 07/06 A3007 RMK AO2 SLP178 T00670056 402060028
KCCB 
16nm NW 
119.525 909-985-4731
260815Z AUTO 00000KT 7SM 10/06 A3004 RMK AO2
KPOC 
19nm W 
260147Z 24005KT 9SM CLR 14/12 A3007 RMK LAST
TAF
KONT 
9nm NW 
260523Z 2606/2712 25004KT 5SM BR FEW250 FM260800 VRB03KT 4SM BR BKN010 FM261500 VRB04KT 6SM HZ SCT015 FM262000 04015G25KT P6SM SKC FM270400 05020G30KT P6SM SKC FM271000 05012G22KT P6SM SKC
KRIV 
10nm SE 
260547Z 2605/2710 31006KT 9999 FEW005 SCT250 QNH3002INS BECMG 2605/2606 VRB05KT 8000 BR BKN005 BKN250 QNH3001INS BECMG 2610/2611 15004KT 9000 BR BKN010 BKN250 QNH3002INS BECMG 2614/2615 VRB05KT 9999 NSW SCT020 QNH3003INS BECMG 2617/2618 35009KT 9999 SKC 520009 QNH3006INS WND 300V020 TEMPO 2618/2620 35012G20KT BECMG 2619/2620 36015G28KT 9999 SKC 520009 QNH3001INS WND 330V040 BECMG 2701/2702 36012G20KT 9999 SKC 520009 QNH3002INS WND 330V040 BECMG 2704/2705 34009KT 9999 SKC QNH3008INS TX19/2621Z TN
KSBD 
11nm NE 
260523Z 2606/2706 VRB05KT 6SM HZ SKC FM260900 VRB03KT 4SM BR BKN010 FM261400 01006KT P6SM SCT025 FM261700 35015G25KT P6SM SKC FM270200 03012G22KT P6SM SKC
NOTAMs
Click for the latest NOTAMs
NOTAMs are issued by the DoD/FAA and will open in a separate window not controlled by AirNav.

 

 
 

FBO, Fuel Providers, and Aircraft Ground Support

  
 Business Name 
 
 Contact 
 
 Services / Description 
 
Fuel Prices
 
Comments
  
Flabob Airport 951-683-2309
[web site]
Airport management, Aviation fuel, Aircraft parking (ramp or tiedown), Hangar leasing / sales, Flight training, Aircraft maintenance, Restrooms, Restaurant

More info about Flabob Airport
Phillips 66
100LL
SS $4.40 
 Updated 06-Nov-2020
 
   1 read write
SS=Self service
Update Fuel Prices
 

Where to Eat: Catering, Restaurants, Food shops

  
 Business Name 
 
 Contact 
 
 Services / Description 
 
Distance
 
Comments
  
Flabob Cafe 951-686-6660
no information available

If you are affiliated with Flabob Cafe and would like to show here your services, contact info, web link, logo, and more, click here
on airport  
   write
 

Would you like to see your business listed on this page?

 If your business provides an interesting product or service to pilots, flight crews, aircraft, or users of the Flabob Airport, you should consider listing it here.  To start the listing process, click on the button below
 
Add a business
 

Other Pages about Flabob Airport

www.flabob.org
philtilden.com/...
 
Update a link
 
Copyright © AirNav, LLC. All rights reserved. Privacy Policy  Contact